N66M KFAT-KDLO

Flight info

Callsign N66M
Flight time 0h 17m
Altitude 9000
Route FRAME PIXEY
Aircraft E55P/L-VGDW/C

Departure

Time 2026-04-19 04:07
Airport Fresno Yosemite International Airport (KFAT)

Arrival

Time 2026-04-19 04:24
Airport Delano Municipal Airport (KDLO)
Time Latitude Longitude Altitude Speed Heading
2026-04-19 03:43 36.77380 -119.72191 332 ft 0 kts 127°
2026-04-19 04:01 36.77379 -119.72190 332 ft 0 kts 127°
2026-04-19 04:01 36.77402 -119.72146 332 ft 6 kts 36°
2026-04-19 04:01 36.77446 -119.72105 333 ft 9 kts 35°
2026-04-19 04:02 36.77476 -119.72040 333 ft 10 kts 118°
2026-04-19 04:02 36.77423 -119.71945 333 ft 15 kts 125°
2026-04-19 04:02 36.77352 -119.71823 332 ft 19 kts 125°
2026-04-19 04:02 36.77272 -119.71684 332 ft 19 kts 125°
2026-04-19 04:03 36.77192 -119.71545 332 ft 19 kts 125°
2026-04-19 04:03 36.77115 -119.71407 332 ft 19 kts 123°
2026-04-19 04:03 36.77038 -119.71272 332 ft 17 kts 123°
2026-04-19 04:03 36.76978 -119.71161 332 ft 11 kts 107°
2026-04-19 04:04 36.76996 -119.71107 332 ft 3 kts 37°
2026-04-19 04:04 36.77000 -119.71104 332 ft 0 kts 36°
2026-04-19 04:05 36.77002 -119.71102 332 ft 1 kts 36°
2026-04-19 04:05 36.77027 -119.71079 332 ft 6 kts 36°
2026-04-19 04:05 36.77072 -119.71084 332 ft 7 kts 309°
2026-04-19 04:05 36.77095 -119.71121 332 ft 3 kts 305°
2026-04-19 04:06 36.77098 -119.71127 332 ft 0 kts 306°
2026-04-19 04:06 36.77216 -119.71332 333 ft 69 kts 306°
2026-04-19 04:06 36.77644 -119.72084 340 ft 138 kts 305°
2026-04-19 04:07 36.78261 -119.73183 701 ft 170 kts 304°
2026-04-19 04:07 36.78921 -119.74397 1510 ft 176 kts 304°
2026-04-19 04:07 36.79613 -119.75774 2051 ft 205 kts 290°
2026-04-19 04:07 36.79582 -119.77599 2796 ft 223 kts 245°
2026-04-19 04:08 36.78493 -119.78974 3534 ft 239 kts 204°
2026-04-19 04:08 36.76805 -119.79186 4273 ft 254 kts 166°
2026-04-19 04:08 36.75211 -119.78128 5011 ft 269 kts 147°
2026-04-19 04:08 36.73566 -119.76969 5812 ft 279 kts 148°
2026-04-19 04:09 36.71909 -119.75677 6641 ft 285 kts 148°
2026-04-19 04:09 36.70253 -119.74384 7495 ft 287 kts 147°
2026-04-19 04:09 36.68555 -119.73052 8359 ft 288 kts 147°
2026-04-19 04:09 36.66861 -119.71725 8912 ft 295 kts 148°
2026-04-19 04:10 36.65122 -119.70362 8992 ft 296 kts 148°
2026-04-19 04:10 36.63362 -119.68995 9003 ft 301 kts 148°
2026-04-19 04:10 36.61586 -119.67603 8999 ft 301 kts 149°
2026-04-19 04:10 36.59694 -119.66547 8999 ft 295 kts 159°
2026-04-19 04:11 36.57805 -119.65565 8989 ft 291 kts 158°
2026-04-19 04:11 36.55960 -119.64616 8985 ft 287 kts 157°
2026-04-19 04:11 36.54118 -119.63660 8996 ft 284 kts 158°
2026-04-19 04:11 36.52287 -119.62711 8998 ft 282 kts 157°
2026-04-19 04:12 36.50474 -119.61779 8998 ft 280 kts 158°
2026-04-19 04:12 36.48692 -119.60857 8996 ft 279 kts 157°
2026-04-19 04:12 36.46889 -119.59919 8993 ft 280 kts 157°
2026-04-19 04:12 36.45084 -119.58994 8989 ft 281 kts 157°
2026-04-19 04:13 36.43263 -119.58058 8990 ft 282 kts 157°
2026-04-19 04:13 36.41448 -119.57119 8989 ft 283 kts 158°
2026-04-19 04:13 36.39597 -119.56168 8990 ft 284 kts 157°
2026-04-19 04:13 36.37791 -119.55238 8993 ft 285 kts 157°
2026-04-19 04:14 36.35931 -119.54279 8992 ft 285 kts 158°
2026-04-19 04:14 36.34094 -119.53330 8996 ft 286 kts 157°
2026-04-19 04:14 36.32262 -119.52392 8991 ft 286 kts 158°
2026-04-19 04:14 36.30408 -119.51437 8988 ft 286 kts 158°
2026-04-19 04:15 36.28575 -119.50500 8986 ft 286 kts 158°
2026-04-19 04:15 36.26733 -119.49548 8990 ft 286 kts 157°
2026-04-19 04:15 36.24884 -119.48604 8982 ft 286 kts 157°
2026-04-19 04:15 36.23048 -119.47665 8977 ft 286 kts 157°
2026-04-19 04:16 36.21212 -119.46719 8979 ft 285 kts 158°
2026-04-19 04:16 36.19392 -119.45782 8980 ft 285 kts 158°
2026-04-19 04:16 36.17536 -119.44833 8988 ft 285 kts 158°
2026-04-19 04:16 36.15715 -119.43899 8990 ft 286 kts 158°
2026-04-19 04:17 36.13865 -119.42954 8990 ft 286 kts 158°
2026-04-19 04:17 36.12026 -119.42011 8989 ft 287 kts 157°
2026-04-19 04:17 36.10175 -119.41064 8832 ft 284 kts 158°
2026-04-19 04:17 36.08414 -119.40045 8562 ft 277 kts 152°
2026-04-19 04:18 36.06622 -119.39259 8276 ft 270 kts 162°
2026-04-19 04:18 36.04893 -119.38438 7987 ft 265 kts 159°
2026-04-19 04:18 36.03188 -119.37619 7626 ft 260 kts 159°
2026-04-19 04:18 36.01525 -119.36805 7206 ft 255 kts 159°
2026-04-19 04:19 35.99896 -119.36012 6779 ft 250 kts 158°
2026-04-19 04:19 35.98288 -119.35226 6357 ft 246 kts 158°
2026-04-19 04:19 35.96739 -119.34466 5947 ft 243 kts 159°
2026-04-19 04:19 35.95210 -119.33717 5484 ft 231 kts 159°
2026-04-19 04:20 35.93753 -119.33003 5046 ft 217 kts 158°
2026-04-19 04:20 35.92390 -119.32344 4617 ft 207 kts 159°
2026-04-19 04:20 35.91081 -119.31709 4194 ft 200 kts 159°
2026-04-19 04:20 35.89807 -119.31083 3771 ft 195 kts 159°
2026-04-19 04:21 35.88557 -119.30471 3346 ft 191 kts 158°
2026-04-19 04:21 35.87327 -119.29869 2958 ft 187 kts 158°
2026-04-19 04:21 35.86154 -119.29301 2675 ft 185 kts 158°
2026-04-19 04:21 35.84975 -119.28735 2252 ft 180 kts 158°
2026-04-19 04:22 35.83815 -119.28165 2021 ft 179 kts 157°
2026-04-19 04:22 35.82674 -119.27607 1984 ft 168 kts 156°
2026-04-19 04:22 35.81601 -119.27084 1924 ft 169 kts 159°
2026-04-19 04:22 35.80530 -119.26543 1742 ft 162 kts 155°
2026-04-19 04:23 35.79541 -119.26050 1611 ft 151 kts 158°
2026-04-19 04:23 35.78563 -119.25597 1338 ft 147 kts 158°
2026-04-19 04:23 35.77638 -119.25147 1013 ft 141 kts 156°
2026-04-19 04:23 35.76756 -119.24706 748 ft 131 kts 157°
2026-04-19 04:24 35.75935 -119.24316 546 ft 122 kts 156°
2026-04-19 04:24 35.75164 -119.23948 372 ft 113 kts 157°
2026-04-19 04:24 35.74479 -119.23611 319 ft 96 kts 159°
2026-04-19 04:24 35.74030 -119.23396 318 ft 41 kts 158°
2026-04-19 04:25 35.73862 -119.23328 318 ft 9 kts 196°
2026-04-19 04:25 35.73860 -119.23402 317 ft 11 kts 295°
2026-04-19 04:25 35.73898 -119.23495 317 ft 13 kts 310°
2026-04-19 04:25 35.73994 -119.23553 317 ft 16 kts 340°
2026-04-19 04:26 35.74119 -119.23612 317 ft 20 kts 338°
2026-04-19 04:26 35.74262 -119.23680 317 ft 21 kts 339°
2026-04-19 04:26 35.74397 -119.23746 318 ft 20 kts 339°
2026-04-19 04:26 35.74419 -119.23786 317 ft 6 kts 165°
2026-04-19 04:27 35.74379 -119.23770 317 ft 3 kts 160°
2026-04-19 04:27 35.74371 -119.23766 317 ft 0 kts 159°